This demonstration page uses our WeatherBlox Daily Observations layout. Learn more.

39.92423, -83.80882

Hourly Observations for December 3, 2017

Temp ( °F °C ) Dew Point ( °F °C ) Humidity (%) Winds ( mph kmh ) Pressure ( in mb ) Visibility ( mi km ) Precip ( " mm )
12:56 am 00:56 Clear 28 -2.2 26 -3.3 92 92 ESE 3 6 30.18 1022 10 16.0934 0 0
1:56 am 01:56 Clear 28 -2.2 27 -2.8 96 96 Calm 30.19 1022 10 16.0934 0 0
2:56 am 02:56 Clear 28 -2.2 26 -3.3 92 92 SW 5 7 30.2 1023 10 16.0934 0 0
3:56 am 03:56 Clear 27 -2.8 26 -3.3 96 96 SSW 3 6 30.19 1022 10 16.0934 0 0
4:56 am 04:56 Clear 26 -3.3 25 -3.9 96 96 SW 5 7 30.2 1023 10 16.0934 0 0
5:56 am 05:56 Clear 26 -3.3 25 -3.9 96 96 Calm 30.21 1023 10 16.0934 0 0
6:56 am 06:56 Clear 26 -3.3 25 -3.9 96 96 SW 7 11 30.24 1024 10 16.0934 0 0
7:56 am 07:56 Sunny 28 -2.2 26 -3.3 92 92 SSW 3 6 30.25 1024 9 14.48406 0 0
8:56 am 08:56 Sunny 35 1.7 32 0 89 89 Calm 30.27 1025 8 12.87472 0 0
9:56 am 09:56 Sunny 41 5 34 1.1 76 76 Calm 30.28 1026 10 16.0934 0 0
10:56 am 10:56 Sunny 45 7.2 34 1.1 66 66 SW 5 7 30.29 1026 10 16.0934 0 0
11:56 am 11:56 Sunny 50 10 35 1.7 57 57 Calm 30.26 1025 10 16.0934 0 0
12:56 pm 12:56 Sunny 53 11.7 36 2.2 52 52 SW 3 6 30.25 1024 10 16.0934 0 0
1:56 pm 13:56 Sunny 56 13.3 35 1.7 46 46 WSW 5 7 30.24 1024 10 16.0934 0 0
2:56 pm 14:56 Sunny 55 12.8 34 1.1 45 45 WSW 7 11 30.22 1024 10 16.0934 0 0
3:56 pm 15:56 Sunny 55 12.8 33 0.6 44 44 Calm 30.22 1023 10 16.0934 0 0
4:56 pm 16:56 Sunny 52 11.1 33 0.6 49 49 S 3 6 30.24 1024 10 16.0934 0 0
5:56 pm 17:56 Clear 48 8.9 32 0 54 54 S 3 6 30.25 1024 10 16.0934 0 0
7:56 pm 19:56 Clear 34 1.1 30 -1.1 85 85 SE 3 6 30.26 1025 10 16.0934 0 0
8:56 pm 20:56 Clear 33 0.6 29 -1.7 85 85 SSE 6 9 30.25 1024 10 16.0934 0 0
9:56 pm 21:56 Clear 34 1.1 30 -1.1 85 85 SSE 6 9 30.24 1024 10 16.0934 0 0
10:56 pm 22:56 Clear 41 5 32 0 70 70 SSE 7 11 30.22 1023 10 16.0934 0 0
11:56 pm 23:56 Clear 40 4.4 32 0 73 73 SSE 7 11 30.22 1023 10 16.0934 0 0

Powered by AerisWeather